Regional Weather Roundup
Issued by NWS

Home | Current Version | Previous Version | Graphics & Text | Print | Product List | Glossary On
Versions: 1 2 3 4 5 6 7 8 9 10 11 12 13 14 15 16 17 18 19 20 21 22 23 24 25 26 27 28 29 30 31 32 33 34 35 36 37 38 39 40 41 42 43 44 45 46 47 48 49 50
097
ASUS43 KMKX 180259
RWRWI

WISCONSIN REGIONAL WEATHER ROUNDUP
NATIONAL WEATHER SERVICE MILWAUKEE/SULLIVAN WI
900 PM CST SUN DEC 17 2017

NOTE: "FAIR" INDICATES FEW OR NO CLOUDS BELOW 12,000 FEET WITH NO
SIGNIFICANT WEATHER AND/OR OBSTRUCTIONS TO VISIBILITY.

WIZ001-002-006>008-014>016-023>028-180400-
NORTHWEST WISCONSIN

CITY           SKY/WX    TMP DP  RH WIND       PRES   REMARKS
SUPERIOR ARPT  CLOUDY    26  22  85 SW6       29.95F WCI  19
ASHLAND        CLOUDY    28  23  81 SW8       29.95F WCI  20
HAYWARD        CLOUDY    27  24  89 S6        29.93F WCI  20
SIREN          CLOUDY    26  24  93 S5        29.96F FOG     WCI  20
CUMBERLAND     CLOUDY    27  27 100 S5        29.95F FOG     WCI  21
RICE LAKE      CLOUDY    28  27  98 CALM      29.98S FOG
CHETEK         CLOUDY    28  27  96 S6        29.97S WCI  21
LADYSMITH      CLOUDY    28  26  94 S5        29.98S FOG     WCI  23
EAU CLAIRE     NOT AVBL
MENOMONIE      CLOUDY    28  27  96 SW6       29.99S FOG     WCI  21
NEW RICHMOND   CLOUDY    26  24  90 S6        29.97F FOG     WCI  20
OSCEOLA        CLOUDY    27  27 100 CALM      30.00S FOG
$$

WIZ003>005-009-010-017-018-180400-
NORTH CENTRAL WISCONSIN

CITY           SKY/WX    TMP DP  RH WIND       PRES   REMARKS
MANITOWISH WTR CLOUDY    24  24 100 S6        29.92S WCI  17
ARBOR VITAE    CLOUDY    27  26  96 SW6       29.92F FOG     WCI  20
WOODRUFF       CLOUDY    27  26  96 SW6       29.92F FOG     WCI  20
RHINELANDER    CLOUDY    26  26 100 S6        29.93F FOG     WCI  19
EAGLE RIVER    CLOUDY    26  26 100 SW3       29.92F FOG
LAND O LAKES   CLOUDY    26  25  98 SW5       29.93S FOG     WCI  20
PHILLIPS       CLOUDY    25  25 100 SW5       29.93S FOG     WCI  19
TOMAHAWK       CLOUDY    26  24  96 CALM      29.95S FOG
MEDFORD        FOG       26  25  97 SW6       29.94S VSB 1   WCI  19
MERRILL        CLOUDY    27  26  98 SW5       29.97R FOG     WCI  21
$$

WIZ029-030-035-036-043>047-180400-
CENTRAL WISCONSIN

CITY           SKY/WX    TMP DP  RH WIND       PRES   REMARKS
WAUSAU         CLOUDY    27  26  96 SW5       29.95S FOG     WCI  22
MOSINEE        FOG       27  27 100 SE3       29.97F VSB 1/4
MARSHFIELD     FOG       28  28 100 CALM      29.95S VSB 1/4
STEVENS POINT  FOG       26  26 100 CALM      29.97F VSB 1/2
WAUPACA        CLOUDY    30  27  87 CALM      29.99F FOG
WAUTOMA        CLOUDY    29  26  89 CALM      29.98F
WISC RAPIDS    FOG       28  26  92 CALM      29.99S VSB 1/2
CAMP DOUGLAS   NOT AVBL
$$

WIZ011>013-019>022-031-037>040-048>050-180400-
NORTHEAST WISCONSIN

CITY           SKY/WX    TMP DP  RH WIND       PRES   REMARKS
ANTIGO         CLOUDY    26  26 100 S5        29.95S FOG     WCI  20
SHAWANO        FOG       29  28  94 CALM      29.98F VSB 1/2
OCONTO         CLOUDY    28  27  96 W5        29.99S WCI  23
STURGEON BAY   CLOUDY    30  29  96 SW3       29.98F FOG
GREEN BAY      LGT SNOW  30  28  92 SW5       29.98F FOG     WCI  25
MANITOWOC      CLOUDY    31  29  92 SW6       29.99F FOG     WCI  25
APPLETON       CLOUDY    28  28 100 CALM      29.97S
CLINTONVILLE   NOT AVBL
OSHKOSH        CLOUDY    30  27  88 SW6       29.98F FOG     WCI  24
$$

WIZ032>034-041-042-053>061-180400-
SOUTHWEST WISCONSIN

CITY           SKY/WX    TMP DP  RH WIND       PRES   REMARKS
LA CROSSE      CLOUDY    32  29  88 SW3       29.99S FOG
SPARTA         CLOUDY    29  29  99 CALM      29.99S FOG
VIROQUA        CLOUDY    30  30 100 CALM      29.95F
BOSCOBEL       CLOUDY    33  29  85 SE3       29.98F
PRAIRIE DU CHI CLOUDY    33  29  85 CALM      29.98F
PLATTEVILLE    CLOUDY    33  33 100 CALM      29.96F
$$

WIZ056-057-062-063-064-067-068-180400-
SOUTH CENTRAL WISCONSIN

CITY           SKY/WX    TMP DP  RH WIND       PRES   REMARKS
REEDSBURG      CLOUDY    31  31  98 CALM      29.97F
BARABOO/DELLS  CLOUDY    31  29  92 CALM      29.97F FOG
LONE ROCK      NOT AVBL
MINERAL POINT  PTCLDY    34  34 100 CALM      29.95F FOG
MADISON        CLOUDY    32  30  92 CALM      29.98F FOG
MIDDLETON      CLOUDY    33  31  92 CALM      29.98F
WATERTOWN      CLOUDY    32  32 100 CALM      29.98F FOG
MONROE         CLOUDY    32  32 100 CALM      29.96F FOG
JANESVILLE     CLOUDY    36  36 100 CALM      29.97F FOG
$$

WIZ051-052-058>065-066-070>072-180400-
SOUTHEAST WISCONSIN

CITY           SKY/WX    TMP DP  RH WIND       PRES   REMARKS
MILWAUKEE      CLOUDY    35  33  92 NW3       29.99R FOG
WAUKESHA       FOG       30  30 100 NW3       29.98F VSB 1
MILWAUKEE/TIMM CLOUDY    32  30  93 CALM      30.00F FOG
RACINE         CLOUDY    34  32  92 NW3       30.00S FOG
BURLINGTON       N/A     45  45 100 NW3       29.99S FOG
KENOSHA        CLOUDY    35  31  85 NW3       29.98F FOG
FOND DU LAC    CLOUDY    31  28  89 CALM      29.98F FOG
SHEBOYGAN      FOG       31  31 100 W3        29.98F VSB 3/4
WEST BEND      CLOUDY    32  32 100 CALM      29.97F FOG
JUNEAU         CLOUDY    30  29  94 CALM      30.00S FOG
$$

LSZ147-162-180400-
LAKE SUPERIOR

STATION/POSITION TIME  TEMP    WIND        PRES    WAVE
                       AIR SEA DIR/SP/G            HT/PER
                 (UTC) (F)     (DEG/KT/KT) (MB)    (FT/S)
DEVILS ISLAND    0200   29     220/ 11/ 15 1014.6F
SAXON HARBOR     0230   26                 1013.9F
$$

LMZ867-665-643>646-180400-
LAKE MICHIGAN

STATION/POSITION TIME  TEMP    WIND        PRES    WAVE
                       AIR SEA DIR/SP/G            HT/PER
                 (UTC) (F)     (DEG/KT/KT) (MB)    (FT/S)
NORTHPORT PIER   0240   31        CALM     1015.2S
KEWAUNEE LAKESHO 0230   30     270/  5/  6 1014.6F
SHEBOYGAN LAKESH 0200   32     270/  4/  5 1016.6R
PORT WASHINGTON  0240   33     310/  4/  6 1016.6F
MILWAUKEE LAKESH 0230   34     300/  3/  4   N/A
KENOSHA   LAKESH 0200   35     270/  1/  2 1015.6
$$

TC  - TEMPERATURE IN CELSIUS
VSB - VISIBILITY IN STATUTE MILES
WCI - WIND CHILL INDEX
HX  - HEAT INDEX





USA.gov is the U.S. government's official web portal to all federal, state and local government web resources and services.